Simultaneous Nadir Overpasses (SNOs) Predictions

Prediction of SNOs between AQUA and METOP-A Satellite Orbit:

Table of predicted SNOs for the next 14.0 days since TLE Epoch: 12/26/2020
Index Date (AQUA) Time (AQUA) Lat,Lon (AQUA) SZA (AQUA ) Date (METOP-A) Time (METOP-A) Lat,Lon (METOP-A) SZA (METOP-A ) Distance(km) Time Diff (sec)
1 12/27/2020 02:20:43 76.88, 130.66 100.50 12/27/2020 02:19:32 76.89, 130.77 100.52 2.98 71
2 12/27/2020 03:10:09 -76.90, -61.77 79.48 12/27/2020 03:10:13 -76.92, -61.80 79.46 2.29 4
3 12/27/2020 03:59:38 76.97, 105.60 100.61 12/27/2020 04:00:51 77.01, 105.88 100.61 7.90 73
4 12/29/2020 21:54:57 76.87,-162.85 100.35 12/29/2020 21:53:54 76.89,-162.90 100.39 2.98 63
5 12/29/2020 22:44:24 -76.92, 4.58 79.59 12/29/2020 22:44:35 -76.92, 4.55 79.59 0.80 11
6 12/29/2020 23:33:59 77.28, 170.86 100.83 12/29/2020 23:35:06 77.31, 173.47 100.71 63.82 67
7 01/01/2021 17:29:13 76.90, -96.55 100.19 01/01/2021 17:28:17 76.88, -96.58 100.19 2.23 56
8 01/01/2021 18:18:40 -76.96, 70.90 79.75 01/01/2021 18:18:58 -76.92, 70.89 79.79 3.88 18
9 01/04/2021 13:03:28 76.90, -30.10 99.93 01/04/2021 13:02:39 76.92, -30.09 99.96 2.37 49
10 01/04/2021 13:52:55 -76.95, 137.37 80.02 01/04/2021 13:53:20 -76.96, 137.39 80.01 1.71 25
11 01/07/2021 08:37:42 76.91, 36.31 99.62 01/07/2021 08:37:01 76.91, 36.22 99.64 2.40 41
12 01/07/2021 09:27:09 -76.95,-156.19 80.34 01/07/2021 09:27:42 -76.96,-156.29 80.33 2.60 33



Historial Predications of SNOs between AQUA and METOP-A
